Regional Weather Roundup
Issued by NWS

Home | Current Version | Previous Version | Graphics & Text | Print | Product List | Glossary On
Versions: 1 2 3 4 5 6 7 8 9 10 11 12 13 14 15 16 17 18 19 20 21 22 23 24 25 26 27 28 29 30 31 32 33 34 35 36 37 38 39 40 41 42 43 44 45 46 47 48 49 50
000
ASUS44 KMEG 280510
RWRTN
TENNESSEE HOURLY STATE WEATHER ROUNDUP
NATIONAL WEATHER SERVICE MEMPHIS TN
1200 AM CDT FRI APR 28 2017

TNZ002-004-019-021-049-052-054-088>092-280600-
WEST TENNESSEE

CITY           SKY/WX    TMP DP  RH WIND       PRES   REMARKS
MEMPHIS INTL   CLEAR     60  53  77 E6        29.81R
NWS MEMPHIS      N/A     56 N/A N/A MISG        N/A
JACKSON        MOCLDY    56  54  93 E3        29.84F
DYERSBURG      CLOUDY    57  53  86 E7        29.84F
SOMERVILLE     CLEAR     54  52  94 CALM      29.82R
UNION CITY     CLEAR     57  52  82 E5        29.85S
BOLIVAR        CLEAR     57  54  88 CALM      29.83R
PARIS          CLEAR     52  50  93 NE3       29.87S
HUNTINGDON     CLEAR     55  54  94 CALM      29.86S
LEXINGTON      CLEAR     52  52 100 CALM      29.86S
SAVANNAH       CLEAR     54  52  94 CALM      29.84S
$$

TNZ008-025-027-028-033-062-065-066-280600-
NORTH MIDDLE TENNESSEE

CITY           SKY/WX    TMP DP  RH WIND       PRES   REMARKS
NASHVILLE      CLEAR     55  51  86 CALM      29.90R
PORTLAND       CLEAR     52  50  93 CALM      29.90R
CLARKSVILLE    CLOUDY    52  49  89 CALM      29.89S
SMYRNA         CLEAR     54  53  97 CALM      29.91R
COOKEVILLE     PTCLDY    50  50 100 CALM      29.91R
GALLATIN       CLEAR     54  52  94 CALM      29.93R
CROSSVILLE     CLEAR     52  48  86 CALM      29.94R
$$

TNZ061-075-076-078-094-096-097-280600-
SOUTH MIDDLE TENNESSEE

CITY           SKY/WX    TMP DP  RH WIND       PRES   REMARKS
FAYETTEVILLE     N/A     57  54  88 CALM      29.89S
TULLAHOMA      CLEAR     52  50  93 CALM      29.92R
WINCHESTER     CLEAR     54  54 100 CALM      29.91R
MCMINNVILLE    CLEAR     54  54 100 CALM      29.91R
COLUMBIA       CLEAR    N/A N/A N/A CALM      29.86F
SHELBYVILLE    CLEAR     54  54 100 CALM      29.91R
$$

TNZ017-018-042-046-047-280600-
NORTHEAST TENNESSEE

CITY           SKY/WX    TMP DP  RH WIND       PRES   REMARKS
TRI CITIES     FOG       57  57 100 CALM      29.93R VSB 1/4
ELIZABETHTON   PTCLDY    59  57  94 CALM      29.94R FOG
$$

TNZ012-013-036-069-073-074-280600-
CENTRAL EAST TENNESSEE

CITY           SKY/WX    TMP DP  RH WIND       PRES   REMARKS
KNOXVILLE      CLEAR     62  56  80 SW7       29.90R
OAK RIDGE      CLEAR     58  56  93 CALM      29.93R
DOWNTOWN KNOXV CLEAR     57  57 100 CALM      29.91R FOG
GATLINBURG     CLEAR     57  57 100 CALM      29.91R
MORRISTOWN     CLEAR     59  59 100 CALM      29.91R
JACKSBORO      CLEAR     55  54  94 CALM      29.95R
$$

TNZ083-085-099-280600-
SOUTHEAST TENNESSEE

CITY           SKY/WX    TMP DP  RH WIND       PRES   REMARKS
CHATTANOOGA    CLEAR     60  56  86 CALM      29.91R
$$

SKY/WX REPORTED AS FAIR MEANS FEW OR NO CLOUDS BELOW
12 THOUSAND FEET.





USA.gov is the U.S. government's official web portal to all federal, state and local government web resources and services.